sat.trackr.live / text

‹ back to catalog

STARLINK-36859

NORAD 68710 · 2026-081M

PAYLOAD ACTIVE UNKNOWN

§ Identity

Operator
Country
US
Launch date
2026-04-14
Launch site
AFETR
Launch vehicle
Mass (kg)
RCS (m²)

Purposes: comms

External: N2YO · Heavens-Above · Gunter

§ Orbital elements

Epoch: 2026-09-20T03:37:26.508864Z

Period
93.85 min
Inclination
53.1583°
Eccentricity
0.0001336
Mean motion
15.34408305 rev/d
Perigee alt
461.8 km
Apogee alt
463.6 km
Semi-major
6,840.8 km
B*
3.4852e-4
RAAN
207.4428°
Arg perigee
85.8128°
Mean anomaly
274.3027°
Rev number
2,456

§ Raw data

STARLINK-368591 68710U 26081M   26263.15100126  .00011420  00000+0  34852-3 0  99962 68710  53.1583 207.4428 0001336  85.8128 274.3027 15.34408305 24566

JSON: /api/v1/satellites/68710 · /tle

For live sub-satellite position, see the globe view (requires WebGL).

§ Visibility from observer

Set your observer location to see the next 7 days of passes ≥ 10°. The values pass through the URL so the page stays shareable.

No JS? Fill the form by hand. The geolocation button needs JavaScript.